,,PA_Meas_PMT16A,,PR_Meas_QMR101_102,,RH_Meas_QMH101,,SR_Meas_QMS101,,TA_Meas_QMH101,,GenWind,,GenWind,
time,status,PA,status,PR,status,RH,status,SR,status,TA,status,DirAvg,status,SpdAvg,
2010-10-19, 00:00:04,VALID,919.043,VALID,0,VALID,91.0998,VALID,0.107441,VALID,19.1749,VALID,9,VALID,0.350391,
2010-10-19, 00:01:04,VALID,919.009,VALID,0,VALID,91.3361,VALID,0,VALID,19.1944,VALID,9,VALID,0.488281,
2010-10-19, 00:02:04,VALID,919.012,VALID,0,VALID,90.8025,VALID,0,VALID,19.1749,VALID,9,VALID,0.458984,
2010-10-19, 00:03:04,VALID,919.032,VALID,0,VALID,91.2142,VALID,0,VALID,19.1554,VALID,9,VALID,0.737109,
2010-10-19, 00:04:04,VALID,919.026,VALID,0,VALID,91.016,VALID,0,VALID,19.1178,VALID,9,VALID,0.715625,
2010-10-19, 00:05:04,VALID,919.027,VALID,0,VALID,90.711,VALID,0,VALID,19.0384,VALID,9,VALID,0.639063,
2010-10-19, 00:06:04,VALID,919.004,VALID,0,VALID,91.3209,VALID,0,VALID,18.9994,VALID,9,VALID,0.891406,
2010-10-19, 00:07:04,VALID,919.004,VALID,0,VALID,91.5953,VALID,0,VALID,18.9409,VALID,9,VALID,0.880078,
2010-10-19, 00:08:04,VALID,918.976,VALID,0,VALID,91.5039,VALID,0,VALID,18.9619,VALID,9,VALID,0.688281,
2010-10-19, 00:09:04,VALID,918.99,VALID,0,VALID,91.6563,VALID,0,VALID,18.9424,VALID,9,VALID,0.45,
2010-10-19, 00:10:04,VALID,918.984,VALID,0,VALID,91.3209,VALID,0,VALID,18.9229,VALID,9,VALID,0.403906,
2010-10-19, 00:11:04,VALID,918.971,VALID,0,VALID,91.5267,VALID,0,VALID,18.9229,VALID,9,VALID,0.2875,
2010-10-19, 00:12:04,VALID,918.937,VALID,0,VALID,91.9613,VALID,0,VALID,18.9034,VALID,9,VALID,0.444922,
2010-10-19, 00:13:04,VALID,918.906,VALID,0,VALID,92.1061,VALID,0,VALID,18.9229,VALID,9,VALID,0.365625,
2010-10-19, 00:14:04,VALID,918.862,VALID,0,VALID,91.3666,VALID,0,VALID,18.8824,VALID,9,VALID,0.352734,
2010-10-19, 00:15:04,VALID,918.841,VALID,0,VALID,91.481,VALID,0,VALID,18.8629,VALID,9,VALID,0.260156,
2010-10-19, 00:16:04,VALID,918.782,VALID,0,VALID,91.7478,VALID,0,VALID,18.8644,VALID,9,VALID,0.554297,
2010-10-19, 00:17:04,VALID,918.791,VALID,0,VALID,92.2052,VALID,0,VALID,18.8045,VALID,9,VALID,0.665625,
2010-10-19, 00:18:04,VALID,918.798,VALID,0,VALID,92.3882,VALID,0,VALID,18.8434,VALID,9,VALID,0.642578,
2010-10-19, 00:19:04,VALID,918.756,VALID,0,VALID,91.2599,VALID,0,VALID,18.8644,VALID,9,VALID,0.481641,
2010-10-19, 00:20:04,VALID,918.775,VALID,0,VALID,91.9003,VALID,0,VALID,18.9019,VALID,9,VALID,0.560156,
2010-10-19, 00:21:04,VALID,918.808,VALID,0,VALID,91.7097,VALID,0,VALID,18.9214,VALID,9,VALID,0.471094,
2010-10-19, 00:22:04,VALID,918.787,VALID,0,VALID,90.5433,VALID,0,VALID,18.9424,VALID,9,VALID,0.201172,
2010-10-19, 00:23:04,VALID,918.767,VALID,0,VALID,90.894,VALID,0,VALID,18.9619,VALID,9,VALID,0.63125,
2010-10-19, 00:24:04,VALID,918.762,VALID,0,VALID,91.2523,VALID,0,VALID,18.9424,VALID,9,VALID,0.984375,
2010-10-19, 00:25:04,VALID,918.726,VALID,0,VALID,91.2752,VALID,0,VALID,18.8824,VALID,9,VALID,1.06406,
2010-10-19, 00:26:04,VALID,918.737,VALID,0,VALID,90.2384,VALID,0,VALID,18.8449,VALID,9,VALID,1.06445,
2010-10-19, 00:27:04,VALID,918.721,VALID,0,VALID,91.1227,VALID,0,VALID,18.8254,VALID,9,VALID,0.715625,
2010-10-19, 00:28:04,VALID,918.695,VALID,0,VALID,91.3438,VALID,0,VALID,18.7864,VALID,9,VALID,1.07969,
2010-10-19, 00:29:04,VALID,918.691,VALID,0,VALID,91.6106,VALID,0,VALID,18.7864,VALID,9,VALID,0.981641,
2010-10-19, 00:30:04,VALID,918.673,VALID,0,VALID,91.1989,VALID,0,VALID,18.746,VALID,9,VALID,0.496094,
2010-10-19, 00:31:04,VALID,918.692,VALID,0,VALID,91.9003,VALID,0,VALID,18.7655,VALID,9,VALID,0.608203,
2010-10-19, 00:32:04,VALID,918.711,VALID,0,VALID,91.8774,VALID,0,VALID,18.8059,VALID,9,VALID,0.377344,
2010-10-19, 00:33:04,VALID,918.687,VALID,0,VALID,91.3133,VALID,0,VALID,18.8434,VALID,9,VALID,0.06875,
2010-10-19, 00:34:04,VALID,918.655,VALID,0,VALID,91.481,VALID,0,VALID,18.8644,VALID,9,VALID,0,
2010-10-19, 00:35:04,VALID,918.655,VALID,0,VALID,90.9778,VALID,0,VALID,18.8449,VALID,9,VALID,0.399609,
2010-10-19, 00:36:04,VALID,918.642,VALID,0,VALID,91.2752,VALID,0,VALID,18.8434,VALID,9,VALID,0.00195313,
2010-10-19, 00:37:04,VALID,918.607,VALID,0,VALID,91.2218,VALID,0,VALID,18.8644,VALID,9,VALID,0.178125,
2010-10-19, 00:38:04,VALID,918.586,VALID,0,VALID,89.5828,VALID,0,VALID,18.8434,VALID,9,VALID,0.379297,
2010-10-19, 00:39:04,VALID,918.532,VALID,0,VALID,91.5115,VALID,0.107441,VALID,18.824,VALID,9,VALID,0.708594,
2010-10-19, 00:40:04,VALID,918.525,VALID,0,VALID,90.185,VALID,0,VALID,18.8059,VALID,9,VALID,0.797266,
2010-10-19, 00:41:04,VALID,918.547,VALID,0,VALID,91.6106,VALID,0,VALID,18.7265,VALID,9,VALID,0.94375,
2010-10-19, 00:42:04,VALID,918.525,VALID,0,VALID,91.9689,VALID,0,VALID,18.7279,VALID,9,VALID,1.03477,
2010-10-19, 00:43:04,VALID,918.51,VALID,0,VALID,91.6716,VALID,0,VALID,18.7279,VALID,9,VALID,0.837891,
2010-10-19, 00:44:04,VALID,918.517,VALID,0,VALID,91.9308,VALID,0,VALID,18.7474,VALID,9,VALID,0.868359,
2010-10-19, 00:45:04,VALID,918.513,VALID,0,VALID,92.0985,VALID,0,VALID,18.7864,VALID,9,VALID,1.0625,
2010-10-19, 00:46:04,VALID,918.484,VALID,0,VALID,91.3133,VALID,0,VALID,18.8449,VALID,9,VALID,1.2,
2010-10-19, 00:47:04,VALID,918.457,VALID,0,VALID,90.246,VALID,0,VALID,18.8644,VALID,9,VALID,0.860156,
2010-10-19, 00:48:04,VALID,918.428,VALID,0,VALID,90.5128,VALID,0,VALID,18.8059,VALID,9,VALID,0.579297,
2010-10-19, 00:49:04,VALID,918.414,VALID,0,VALID,90.8406,VALID,0,VALID,18.7474,VALID,9,VALID,0.626562,
2010-10-19, 00:50:04,VALID,918.387,VALID,0,VALID,91.359,VALID,0,VALID,18.7279,VALID,9,VALID,0.486719,
2010-10-19, 00:51:04,VALID,918.343,VALID,0,VALID,91.4581,VALID,0,VALID,18.6875,VALID,9,VALID,0.371484,
2010-10-19, 00:52:04,VALID,918.327,VALID,0,VALID,91.077,VALID,0,VALID,18.668,VALID,9,VALID,0.107422,
2010-10-19, 00:53:04,VALID,918.334,VALID,0,VALID,91.3895,VALID,0,VALID,18.668,VALID,9,VALID,0.00585938,
2010-10-19, 00:54:04,VALID,918.308,VALID,0,VALID,90.8635,VALID,0,VALID,18.6889,VALID,9,VALID,0.314063,
2010-10-19, 00:55:04,VALID,918.301,VALID,0,VALID,91.0083,VALID,0,VALID,18.668,VALID,9,VALID,0,
2010-10-19, 00:56:04,VALID,918.226,VALID,0,VALID,90.7873,VALID,0,VALID,18.668,VALID,9,VALID,0.05,
2010-10-19, 00:57:04,VALID,918.252,VALID,0,VALID,89.4684,VALID,0,VALID,18.6694,VALID,9,VALID,0.35,
2010-10-19, 00:58:04,VALID,918.217,VALID,0,VALID,90.3146,VALID,0,VALID,18.6109,VALID,9,VALID,0.0546875,
2010-10-19, 00:59:04,VALID,918.203,VALID,0,VALID,90.9016,VALID,0,VALID,18.5525,VALID,9,VALID,0,
2010-10-19, 01:00:04,VALID,918.178,VALID,0,VALID,91.6945,VALID,0,VALID,18.572,VALID,9,VALID,0.211719,
2010-10-19, 01:01:04,VALID,918.185,VALID,0,VALID,89.6209,VALID,0,VALID,18.5525,VALID,9,VALID,0.253125,
2010-10-19, 01:02:04,VALID,918.19,VALID,0,VALID,92.4568,VALID,0,VALID,18.6499,VALID,9,VALID,0.0316406,
2010-10-19, 01:03:04,VALID,918.16,VALID,0,VALID,90.1774,VALID,0,VALID,18.6109,VALID,9,VALID,0.0511719,
2010-10-19, 01:04:04,VALID,918.192,VALID,0,VALID,91.6258,VALID,0,VALID,18.6499,VALID,9,VALID,0.378906,
2010-10-19, 01:05:04,VALID,918.194,VALID,0,VALID,91.298,VALID,0,VALID,18.6889,VALID,9,VALID,0.654688,
2010-10-19, 01:06:04,VALID,918.182,VALID,0,VALID,90.4671,VALID,0,VALID,18.7474,VALID,9,VALID,0.780469,
2010-10-19, 01:07:04,VALID,918.198,VALID,0,VALID,90.1012,VALID,0,VALID,18.7474,VALID,9,VALID,0.65,
2010-10-19, 01:08:04,VALID,918.17,VALID,0,VALID,90.4747,VALID,0,VALID,18.7279,VALID,9,VALID,0.602734,
2010-10-19, 01:09:04,VALID,918.181,VALID,0,VALID,90.5052,VALID,0,VALID,18.6875,VALID,9,VALID,0.385938,
2010-10-19, 01:10:04,VALID,918.151,VALID,0,VALID,90.7644,VALID,0,VALID,18.6694,VALID,9,VALID,0.267578,
2010-10-19, 01:11:04,VALID,918.141,VALID,0,VALID,91.2066,VALID,0,VALID,18.6694,VALID,9,VALID,0.66875,
2010-10-19, 01:12:04,VALID,918.139,VALID,0,VALID,91.3514,VALID,0,VALID,18.7084,VALID,9,VALID,0.566797,
2010-10-19, 01:13:04,VALID,918.122,VALID,0,VALID,91.0541,VALID,0,VALID,18.7265,VALID,9,VALID,0.581641,
2010-10-19, 01:14:04,VALID,918.111,VALID,0,VALID,90.4671,VALID,0,VALID,18.7474,VALID,9,VALID,0.695703,
2010-10-19, 01:15:04,VALID,918.118,VALID,0,VALID,90.2536,VALID,0,VALID,18.7084,VALID,9,VALID,0.567187,
2010-10-19, 01:16:04,VALID,918.105,VALID,0,VALID,90.4137,VALID,0,VALID,18.6304,VALID,9,VALID,0.515234,
2010-10-19, 01:17:04,VALID,918.102,VALID,0,VALID,91.1379,VALID,0,VALID,18.5914,VALID,9,VALID,0.437891,
2010-10-19, 01:18:04,VALID,918.068,VALID,0,VALID,91.0922,VALID,0,VALID,18.5525,VALID,9,VALID,0.258984,
2010-10-19, 01:19:04,VALID,918.067,VALID,0,VALID,91.0083,VALID,0,VALID,18.5135,VALID,9,VALID,0.0398437,
2010-10-19, 01:20:04,VALID,918.043,VALID,0,VALID,91.1074,VALID,0,VALID,18.533,VALID,9,VALID,0.358203,
2010-10-19, 01:21:04,VALID,917.974,VALID,0,VALID,90.9321,VALID,0,VALID,18.5135,VALID,9,VALID,0.333203,
2010-10-19, 01:22:04,VALID,918.006,VALID,0,VALID,90.5281,VALID,0,VALID,18.5135,VALID,9,VALID,0,
2010-10-19, 01:23:04,VALID,917.975,VALID,0,VALID,89.133,VALID,0,VALID,18.4745,VALID,9,VALID,0.308984,
2010-10-19, 01:24:04,VALID,917.975,VALID,0,VALID,91.1227,VALID,0,VALID,18.4745,VALID,9,VALID,0.342187,
2010-10-19, 01:25:04,VALID,917.951,VALID,0,VALID,90.1316,VALID,0,VALID,18.416,VALID,9,VALID,0,
2010-10-19, 01:26:04,VALID,917.933,VALID,0,VALID,91.3666,VALID,0,VALID,18.416,VALID,9,VALID,0.303906,
2010-10-19, 01:27:04,VALID,917.943,VALID,0,VALID,90.7263,VALID,0,VALID,18.338,VALID,9,VALID,0.253906,
2010-10-19, 01:28:04,VALID,917.928,VALID,0,VALID,92.2738,VALID,0,VALID,18.3172,VALID,9,VALID,0.484766,
2010-10-19, 01:29:04,VALID,917.917,VALID,0,VALID,92.0223,VALID,0,VALID,18.3185,VALID,9,VALID,0.534375,
2010-10-19, 01:30:04,VALID,917.926,VALID,0,VALID,92.4568,VALID,0,VALID,18.299,VALID,9,VALID,0.372266,
2010-10-19, 01:31:04,VALID,917.907,VALID,0,VALID,92.5788,VALID,0,VALID,18.2796,VALID,9,VALID,0.45,
2010-10-19, 01:32:04,VALID,917.915,VALID,0,VALID,92.3119,VALID,0,VALID,18.2601,VALID,9,VALID,0.402344,
2010-10-19, 01:33:04,VALID,917.898,VALID,0,VALID,91.5801,VALID,0,VALID,18.2406,VALID,9,VALID,0.136328,
2010-10-19, 01:34:04,VALID,917.877,VALID,0,VALID,91.4657,VALID,0,VALID,18.2211,VALID,9,VALID,0.360938,
2010-10-19, 01:35:04,VALID,917.865,VALID,0,VALID,91.9003,VALID,0,VALID,18.2016,VALID,9,VALID,0.716406,
2010-10-19, 01:36:04,VALID,917.864,VALID,0,VALID,91.7249,VALID,0,VALID,18.2016,VALID,9,VALID,0.674609,
2010-10-19, 01:37:04,VALID,917.846,VALID,0,VALID,92.2891,VALID,0,VALID,18.2016,VALID,9,VALID,0.666406,
2010-10-19, 01:38:04,VALID,917.873,VALID,0,VALID,92.6245,VALID,0,VALID,18.2406,VALID,9,VALID,0.63125,
2010-10-19, 01:39:04,VALID,917.857,VALID,0,VALID,92.5864,VALID,0,VALID,18.2782,VALID,9,VALID,0.416016,
2010-10-19, 01:40:04,VALID,917.828,VALID,0,VALID,91.8393,VALID,0,VALID,18.3185,VALID,9,VALID,0.824609,
2010-10-19, 01:41:04,VALID,917.863,VALID,0,VALID,91.6945,VALID,0,VALID,18.377,VALID,9,VALID,0.575,
2010-10-19, 01:42:04,VALID,917.858,VALID,0,VALID,91.4962,VALID,0,VALID,18.3965,VALID,9,VALID,0.412109,
2010-10-19, 01:43:04,VALID,917.842,VALID,0,VALID,91.3361,VALID,0,VALID,18.3965,VALID,9,VALID,0.226172,
2010-10-19, 01:44:04,VALID,917.849,VALID,0,VALID,91.4505,VALID,0,VALID,18.3965,VALID,9,VALID,0.380078,
2010-10-19, 01:45:04,VALID,917.865,VALID,0,VALID,91.0312,VALID,0,VALID,18.3756,VALID,9,VALID,0.304688,
2010-10-19, 01:46:04,VALID,917.858,VALID,0,VALID,91.1074,VALID,0,VALID,18.377,VALID,9,VALID,0.390234,
2010-10-19, 01:47:04,VALID,917.852,VALID,0,VALID,91.7402,VALID,0,VALID,18.377,VALID,9,VALID,0.949219,
2010-10-19, 01:48:04,VALID,917.857,VALID,0,VALID,90.9778,VALID,0,VALID,18.416,VALID,9,VALID,0.854688,
2010-10-19, 01:49:04,VALID,917.846,VALID,0,VALID,91.2752,VALID,0,VALID,18.3965,VALID,9,VALID,0.563672,
2010-10-19, 01:50:04,VALID,917.829,VALID,0,VALID,90.9931,VALID,0,VALID,18.4369,VALID,9,VALID,0.398828,
2010-10-19, 01:51:04,VALID,917.808,VALID,0,VALID,91.0236,VALID,0,VALID,18.3965,VALID,9,VALID,0.509766,
2010-10-19, 01:52:04,VALID,917.796,VALID,0,VALID,89.255,VALID,0,VALID,18.377,VALID,9,VALID,0.211719,
2010-10-19, 01:53:04,VALID,917.798,VALID,0,VALID,90.185,VALID,0,VALID,18.377,VALID,9,VALID,0.386328,
2010-10-19, 01:54:04,VALID,917.764,VALID,0,VALID,89.6133,VALID,0,VALID,18.3575,VALID,9,VALID,0,
2010-10-19, 01:55:04,VALID,917.809,VALID,0,VALID,90.5967,VALID,0,VALID,18.3575,VALID,9,VALID,0.512891,
2010-10-19, 01:56:04,VALID,917.787,VALID,0,VALID,90.1545,VALID,0,VALID,18.338,VALID,9,VALID,0.387109,
2010-10-19, 01:57:04,VALID,917.8,VALID,0,VALID,90.3832,VALID,0,VALID,18.3185,VALID,9,VALID,0.139844,
2010-10-19, 01:58:04,VALID,917.756,VALID,0,VALID,90.4061,VALID,0,VALID,18.2809,VALID,9,VALID,0.471094,
2010-10-19, 01:59:04,VALID,917.754,VALID,0,VALID,90.5891,VALID,0,VALID,18.299,VALID,9,VALID,0.621875,
2010-10-19, 02:00:04,VALID,917.701,VALID,0,VALID,90.185,VALID,0,VALID,18.3185,VALID,9,VALID,0.501953,
2010-10-19, 02:01:04,VALID,917.726,VALID,0,VALID,91.0083,VALID,0,VALID,18.338,VALID,9,VALID,0,
2010-10-19, 02:02:04,VALID,917.726,VALID,0,VALID,88.6832,VALID,0,VALID,18.299,VALID,9,VALID,0.244531,
2010-10-19, 02:03:04,VALID,917.755,VALID,0,VALID,90.3527,VALID,0,VALID,18.2796,VALID,9,VALID,0.663672,
2010-10-19, 02:04:04,VALID,917.733,VALID,0,VALID,90.5357,VALID,0,VALID,18.2796,VALID,9,VALID,0.373047,
2010-10-19, 02:05:04,VALID,917.789,VALID,0,VALID,91.1303,VALID,0,VALID,18.2796,VALID,9,VALID,0.292578,
2010-10-19, 02:06:04,VALID,917.787,VALID,0,VALID,91.5115,VALID,0,VALID,18.2601,VALID,9,VALID,0.283203,
2010-10-19, 02:07:04,VALID,917.817,VALID,0,VALID,90.9245,VALID,0,VALID,18.2211,VALID,9,VALID,0.676172,
2010-10-19, 02:08:04,VALID,917.785,VALID,0,VALID,92.7541,VALID,0,VALID,18.2796,VALID,9,VALID,0.528906,
2010-10-19, 02:09:04,VALID,917.769,VALID,0,VALID,87.8218,VALID,0,VALID,18.1236,VALID,9,VALID,0.892187,
2010-10-19, 02:10:04,VALID,917.769,VALID,0,VALID,91.6868,VALID,0,VALID,17.9287,VALID,9,VALID,0.866406,
2010-10-19, 02:11:04,VALID,917.739,VALID,0,VALID,93.6308,VALID,0,VALID,17.9092,VALID,9,VALID,1.05156,
2010-10-19, 02:12:04,VALID,917.72,VALID,0,VALID,93.2572,VALID,0,VALID,17.9496,VALID,9,VALID,0.542188,
2010-10-19, 02:13:04,VALID,917.712,VALID,0,VALID,93.3564,VALID,0,VALID,17.9872,VALID,9,VALID,0.75,
2010-10-19, 02:14:04,VALID,917.683,VALID,0,VALID,92.6397,VALID,0,VALID,18.0067,VALID,9,VALID,0.471094,
2010-10-19, 02:15:04,VALID,917.662,VALID,0,VALID,92.7846,VALID,0,VALID,18.0457,VALID,9,VALID,0.505469,
2010-10-19, 02:16:04,VALID,917.685,VALID,0,VALID,92.3806,VALID,0,VALID,18.0665,VALID,9,VALID,0.794141,
2010-10-19, 02:17:04,VALID,917.657,VALID,0,VALID,92.411,VALID,0,VALID,18.086,VALID,9,VALID,0.606641,
2010-10-19, 02:18:04,VALID,917.655,VALID,0,VALID,92.1519,VALID,0,VALID,18.0457,VALID,9,VALID,1.08867,
2010-10-19, 02:19:04,VALID,917.616,VALID,0,VALID,92.5483,VALID,0,VALID,18.0067,VALID,9,VALID,1.07852,
2010-10-19, 02:20:04,VALID,917.577,VALID,0,VALID,92.3577,VALID,0,VALID,18.0262,VALID,9,VALID,0.811719,
2010-10-19, 02:21:04,VALID,917.601,VALID,0,VALID,91.9079,VALID,0,VALID,18.0457,VALID,9,VALID,0.88125,
2010-10-19, 02:22:04,VALID,917.562,VALID,0,VALID,92.007,VALID,0,VALID,18.1055,VALID,9,VALID,0.926953,
2010-10-19, 02:23:04,VALID,917.52,VALID,0,VALID,92.2433,VALID,0,VALID,18.1236,VALID,9,VALID,1.16367,
2010-10-19, 02:24:04,VALID,917.538,VALID,0,VALID,91.6335,VALID,0,VALID,18.1431,VALID,9,VALID,0.923437,
2010-10-19, 02:25:04,VALID,917.509,VALID,0,VALID,91.9231,VALID,0,VALID,18.1445,VALID,9,VALID,0.747656,
2010-10-19, 02:26:04,VALID,917.503,VALID,0,VALID,91.6945,VALID,0,VALID,18.1055,VALID,9,VALID,0.769531,
2010-10-19, 02:27:04,VALID,917.485,VALID,0,VALID,92.0299,VALID,0,VALID,18.0665,VALID,9,VALID,1.08086,
2010-10-19, 02:28:04,VALID,917.458,VALID,0,VALID,92.3882,VALID,0.107441,VALID,18.0833,VALID,9,VALID,1.11055,
2010-10-19, 02:29:04,VALID,917.464,VALID,0,VALID,92.068,VALID,0,VALID,18.1417,VALID,9,VALID,1.01641,
2010-10-19, 02:30:04,VALID,917.5,VALID,0,VALID,91.6335,VALID,0,VALID,18.1821,VALID,20,VALID,1.06758,
2010-10-19, 02:31:04,VALID,917.481,VALID,0,VALID,91.824,VALID,0,VALID,18.2406,VALID,20,VALID,1.10859,
2010-10-19, 02:32:04,VALID,917.475,VALID,0,VALID,91.3819,VALID,0,VALID,18.299,VALID,20,VALID,0.744141,
2010-10-19, 02:33:04,VALID,917.498,VALID,0,VALID,90.9473,VALID,0,VALID,18.299,VALID,20,VALID,0.508984,
2010-10-19, 02:34:04,VALID,917.511,VALID,0,VALID,90.4061,VALID,0,VALID,18.2601,VALID,20,VALID,0.492578,
2010-10-19, 02:35:04,VALID,917.486,VALID,0,VALID,91.1989,VALID,0.107441,VALID,18.2211,VALID,20,VALID,0.548047,
2010-10-19, 02:36:04,VALID,917.476,VALID,0,VALID,92.0527,VALID,0,VALID,18.1821,VALID,20,VALID,0.846094,
2010-10-19, 02:37:04,VALID,917.442,VALID,0,VALID,91.9918,VALID,0,VALID,18.1821,VALID,20,VALID,0.579297,
2010-10-19, 02:38:04,VALID,917.455,VALID,0,VALID,91.0465,VALID,0.107441,VALID,18.1821,VALID,20,VALID,0.280859,
2010-10-19, 02:39:04,VALID,917.47,VALID,0,VALID,91.2752,VALID,0.107441,VALID,18.1807,VALID,20,VALID,0.350391,
2010-10-19, 02:40:04,VALID,917.41,VALID,0,VALID,91.603,VALID,0,VALID,18.2016,VALID,20,VALID,0.321094,
2010-10-19, 02:41:04,VALID,917.371,VALID,0,VALID,91.077,VALID,0.107441,VALID,18.2016,VALID,20,VALID,0.482422,
2010-10-19, 02:42:04,VALID,917.4,VALID,0,VALID,90.3908,VALID,0,VALID,18.1807,VALID,20,VALID,0.2375,
2010-10-19, 02:43:04,VALID,917.413,VALID,0,VALID,89.3617,VALID,0,VALID,18.164,VALID,20,VALID,0.43125,
2010-10-19, 02:44:04,VALID,917.419,VALID,0,VALID,87.6845,VALID,0,VALID,18.047,VALID,20,VALID,0.521484,
2010-10-19, 02:45:04,VALID,917.403,VALID,0,VALID,88.2029,VALID,0,VALID,17.8521,VALID,20,VALID,0.533984,
2010-10-19, 02:46:04,VALID,917.458,VALID,0,VALID,90.6577,VALID,0,VALID,17.6377,VALID,20,VALID,0.557422,
2010-10-19, 02:47:04,VALID,917.453,VALID,0,VALID,91.6487,VALID,0,VALID,17.4623,VALID,20,VALID,0.696094,
2010-10-19, 02:48:04,VALID,917.476,VALID,0,VALID,93.7909,VALID,0,VALID,17.4233,VALID,20,VALID,0.776563,
2010-10-19, 02:49:04,VALID,917.461,VALID,0,VALID,93.89,VALID,0,VALID,17.3844,VALID,20,VALID,0.746484,
2010-10-19, 02:50:04,VALID,917.434,VALID,0,VALID,94.2102,VALID,0,VALID,17.4233,VALID,20,VALID,0.513672,
2010-10-19, 02:51:04,VALID,917.405,VALID,0,VALID,94.2483,VALID,0,VALID,17.4818,VALID,20,VALID,0.414453,
2010-10-19, 02:52:04,VALID,917.376,VALID,0,VALID,93.8976,VALID,0,VALID,17.5208,VALID,20,VALID,0,
2010-10-19, 02:53:04,VALID,917.371,VALID,0,VALID,93.8976,VALID,0,VALID,17.5792,VALID,20,VALID,0,
2010-10-19, 02:54:04,VALID,917.364,VALID,0,VALID,93.5927,VALID,0,VALID,17.5792,VALID,20,VALID,0,
2010-10-19, 02:55:04,VALID,917.351,VALID,0,VALID,93.5241,VALID,0,VALID,17.5987,VALID,20,VALID,0,
2010-10-19, 02:56:04,VALID,917.394,VALID,0,VALID,93.5012,VALID,0,VALID,17.6377,VALID,20,VALID,0,
2010-10-19, 02:57:04,VALID,917.423,VALID,0,VALID,92.9447,VALID,0,VALID,17.6377,VALID,20,VALID,0,
2010-10-19, 02:58:04,VALID,917.475,VALID,0,VALID,93.2877,VALID,0,VALID,17.6364,VALID,20,VALID,0,
2010-10-19, 02:59:04,VALID,917.482,VALID,0,VALID,93.2877,VALID,0,VALID,17.6364,VALID,20,VALID,0,
2010-10-19, 03:00:04,VALID,917.518,VALID,0,VALID,92.9904,VALID,0,VALID,17.6169,VALID,20,VALID,0,
2010-10-19, 03:01:04,VALID,917.492,VALID,0,VALID,92.9904,VALID,0,VALID,17.6182,VALID,20,VALID,0,
2010-10-19, 03:02:04,VALID,917.471,VALID,0,VALID,93.3716,VALID,0,VALID,17.6377,VALID,20,VALID,0,
2010-10-19, 03:03:04,VALID,917.458,VALID,0,VALID,93.0895,VALID,0,VALID,17.5974,VALID,20,VALID,0,
2010-10-19, 03:04:04,VALID,917.414,VALID,0,VALID,91.8927,VALID,0,VALID,17.5987,VALID,20,VALID,0,
2010-10-19, 03:05:04,VALID,917.389,VALID,0,VALID,91.4962,VALID,0,VALID,17.6169,VALID,20,VALID,0,
2010-10-19, 03:06:04,VALID,917.335,VALID,0,VALID,91.946,VALID,0,VALID,17.6364,VALID,20,VALID,0,
2010-10-19, 03:07:04,VALID,917.334,VALID,0,VALID,92.2205,VALID,0,VALID,17.6767,VALID,20,VALID,0,
2010-10-19, 03:08:04,VALID,917.286,VALID,0,VALID,93.1581,VALID,0,VALID,17.6948,VALID,20,VALID,0,
2010-10-19, 03:09:04,VALID,917.292,VALID,0,VALID,93.7299,VALID,0,VALID,17.7728,VALID,20,VALID,0,
2010-10-19, 03:10:04,VALID,917.312,VALID,0,VALID,93.059,VALID,0,VALID,17.7533,VALID,20,VALID,0,
2010-10-19, 03:11:04,VALID,917.3,VALID,0,VALID,92.3196,VALID,0,VALID,17.6948,VALID,20,VALID,0.462891,
2010-10-19, 03:12:04,VALID,917.349,VALID,0,VALID,92.0604,VALID,0,VALID,17.6169,VALID,20,VALID,0.635938,
2010-10-19, 03:13:04,VALID,917.31,VALID,0,VALID,91.5191,VALID,0,VALID,17.5194,VALID,20,VALID,0.547656,
2010-10-19, 03:14:04,VALID,917.29,VALID,0,VALID,92.6779,VALID,0,VALID,17.5208,VALID,20,VALID,0.941406,
2010-10-19, 03:15:04,VALID,917.283,VALID,0,VALID,93.4707,VALID,0,VALID,17.5194,VALID,20,VALID,0.989062,
2010-10-19, 03:16:04,VALID,917.286,VALID,0,VALID,94.0043,VALID,0,VALID,17.5987,VALID,20,VALID,0.981641,
2010-10-19, 03:17:04,VALID,917.274,VALID,0,VALID,93.9357,VALID,0,VALID,17.5779,VALID,20,VALID,0.846094,
2010-10-19, 03:18:04,VALID,917.302,VALID,0,VALID,93.8519,VALID,0,VALID,17.5792,VALID,20,VALID,0.578125,
2010-10-19, 03:19:04,VALID,917.268,VALID,0,VALID,92.7312,VALID,0,VALID,17.4805,VALID,20,VALID,0.40625,
2010-10-19, 03:20:04,VALID,917.288,VALID,0,VALID,92.6702,VALID,0,VALID,17.4623,VALID,20,VALID,0,
2010-10-19, 03:21:04,VALID,917.284,VALID,0,VALID,93.1963,VALID,0,VALID,17.422,VALID,20,VALID,0.129688,
2010-10-19, 03:22:04,VALID,917.252,VALID,0,VALID,93.6765,VALID,0,VALID,17.4233,VALID,20,VALID,0.459766,
2010-10-19, 03:23:04,VALID,917.255,VALID,0,VALID,94.0425,VALID,0,VALID,17.3844,VALID,20,VALID,0.44375,
2010-10-19, 03:24:04,VALID,917.23,VALID,0,VALID,94.3398,VALID,0,VALID,17.3441,VALID,20,VALID,0.822656,
2010-10-19, 03:25:04,VALID,917.257,VALID,0,VALID,94.6828,VALID,0,VALID,17.3441,VALID,20,VALID,0.880859,
2010-10-19, 03:26:04,VALID,917.261,VALID,0,VALID,95.3156,VALID,0,VALID,17.422,VALID,20,VALID,0.588281,
2010-10-19, 03:27:04,VALID,917.253,VALID,0,VALID,95.0411,VALID,0,VALID,17.4038,VALID,20,VALID,0.191797,
2010-10-19, 03:28:04,VALID,917.257,VALID,0,VALID,94.4922,VALID,0,VALID,17.3454,VALID,20,VALID,0,
2010-10-19, 03:29:04,VALID,917.276,VALID,0,VALID,94.1797,VALID,0,VALID,17.3246,VALID,20,VALID,0.0132813,
2010-10-19, 03:30:04,VALID,917.256,VALID,0,VALID,94.2026,VALID,0,VALID,17.3064,VALID,20,VALID,0.481641,
2010-10-19, 03:31:04,VALID,917.228,VALID,0,VALID,94.2483,VALID,0,VALID,17.2661,VALID,20,VALID,0.496484,
2010-10-19, 03:32:04,VALID,917.223,VALID,0,VALID,94.3169,VALID,0.107441,VALID,17.2466,VALID,20,VALID,0.534766,
2010-10-19, 03:33:04,VALID,917.226,VALID,0,VALID,94.8734,VALID,0,VALID,17.3064,VALID,20,VALID,0.897266,
2010-10-19, 03:34:04,VALID,917.224,VALID,0,VALID,95.4757,VALID,0,VALID,17.3441,VALID,20,VALID,0.876953,
2010-10-19, 03:35:04,VALID,917.218,VALID,0,VALID,94.7896,VALID,0,VALID,17.2077,VALID,20,VALID,0.482422,
2010-10-19, 03:36:04,VALID,917.198,VALID,0,VALID,94.3017,VALID,0,VALID,17.17,VALID,20,VALID,0.502734,
2010-10-19, 03:37:04,VALID,917.213,VALID,0,VALID,94.5685,VALID,0,VALID,17.17,VALID,20,VALID,0.398828,
2010-10-19, 03:38:04,VALID,917.167,VALID,0,VALID,94.4236,VALID,0,VALID,17.1102,VALID,20,VALID,0.449219,
2010-10-19, 03:39:04,VALID,917.196,VALID,0,VALID,93.9281,VALID,0,VALID,17.0323,VALID,20,VALID,0.785156,
2010-10-19, 03:40:04,VALID,917.165,VALID,0,VALID,95.247,VALID,0,VALID,17.1492,VALID,20,VALID,0.840234,
2010-10-19, 03:41:04,VALID,917.193,VALID,0,VALID,95.5824,VALID,0,VALID,17.1297,VALID,20,VALID,0.712891,
2010-10-19, 03:42:04,VALID,917.198,VALID,0,VALID,95.7272,VALID,0,VALID,17.1895,VALID,20,VALID,0.655469,
2010-10-19, 03:43:04,VALID,917.181,VALID,0,VALID,95.9254,VALID,0,VALID,17.1882,VALID,20,VALID,0.53125,
2010-10-19, 03:44:04,VALID,917.165,VALID,0,VALID,96.0703,VALID,0,VALID,17.2674,VALID,20,VALID,0.554688,
2010-10-19, 03:45:04,VALID,917.183,VALID,0,VALID,95.9864,VALID,0,VALID,17.2466,VALID,20,VALID,0.613281,
2010-10-19, 03:46:04,VALID,917.124,VALID,0,VALID,95.8187,VALID,0,VALID,17.2271,VALID,20,VALID,0.769531,
2010-10-19, 03:47:04,VALID,917.106,VALID,0,VALID,96.0322,VALID,0,VALID,17.3064,VALID,20,VALID,0.689062,
2010-10-19, 03:48:04,VALID,917.085,VALID,0,VALID,96.0017,VALID,0,VALID,17.3454,VALID,20,VALID,0.85,
2010-10-19, 03:49:04,VALID,917.046,VALID,0,VALID,96.055,VALID,0,VALID,17.3649,VALID,20,VALID,0.613281,